星链-2412 (STARLINK-2412 )

导读

STARLINK-2412是美国太空探索技术公司(SpaceX)星链(Starlink)项目的V1.0低轨通信卫星,于北京时间2021年4月7日由猎鹰9号火箭发射,属于星链第24批次组网卫星。该卫星运行在倾角约53度、高度约480公里的近地轨道,设计寿命约5年,旨在为全球提供高带宽、低延迟的高速互联网接入服务,目前仍在轨正常工作。

基本信息
目录编号:
48094
目录名称:
STARLINK-2412
国际标识:
2021-027C
轨道中心:
EARTH
卫星名称:
星链-2412
卫星全名:
星链-2412 (STARLINK-2412 )
卫星状态:
在轨 (已飞行1983 天)
发射日期:
2021-04-07 UTC
国别 :
美国 (US)
星等 :
--
该卫星已列入 空间交会检测服务 Space Conjunction Data Service (SCDS) ,当前飞行风险评估等级: 高风险
轨道信息
数据来源 国际轨道数据
星历时间: 2026-09-10T23:35:04+0800
18小时前
查看轨道信息
半长轴: 6848.864km
偏心率: 0.0001133
轨道倾角: 53.159°
近地点辐角 37.119°
升交点赤经 24.991°
平近点角 322.989°
近地点: 469.951km
远地点: 471.503km
周期: 94.013分钟
每日圈数: 15.317044
详细信息
固有亮度:
5
最大亮度:
2.5
卫星平台:
Starlink V1.0
覆盖范围:
全球
运营商:
太空探索技术公司
运营商所在国:
美国
制造商(研发单位):
太空探索技术公司
制造商所在国:
美国
使用方式:
暂无
卫星简介
星链(Starlink)计划是由太空探索技术公司(SpaceX)提出的一个巨型低轨卫星互联网星座项目,计划在2019年至2024年间在太空搭建由约1.2万颗卫星组成的“星链”网络,其中1584颗将部署在地球上空550千米处的近地轨道,并从2020年开始工作。该卫星仍在工作。
2D轨道图
3D轨道图
轨道高度分析图
轨道倾角分析图
轨道综合分析图
查看轨道综合分析图
交会数据列表
事件ID 空间交会对象 最接近时刻(TCA) 交会距离 交会风险概率(CRP) 交会风险指数(CRI) 操作
CDM_260912-061804-809406-882323
2026-09-12T
06:18:02+0000
2.667 km
极远距离
1.304475E-6 低风险 0.37
CDM_260905-075004-809406-840421
2026-09-05T
07:50:02+0000
2.989 km
极远距离
8.269152E-7 极低风险 0.33
与全量物体交会距离演化趋势
与全量物体交会风险概率演化趋势